^^
Daily Summary for March 10, 2021 Units:  English    Metric   Both
Daily Weekly Monthly Yearly Custom
  High: Low: Average:
Temperature: 37.0 °F 35.0 °F 35.9 °F
Dew Point: 35.0 °F 32.0 °F 33.6 °F
Humidity: 92% 90% 91%
Wind Speed: 16mph 0mph 5mph
Wind Gust: 16mph - -
Wind- - WNW
Pressure: 30.1 in 30.0 in -
Precipitation: 0.290 in    
Historical Graphs
 
 
Tabular Data for March 10, 2021
Time Temperature Dew Point Pressure Wind Wind Speed Wind Gust Humidity Rainfall Rate (Hourly) solar
00:04 37.0 °F 34.0 °F 30.1 in NW 13 mph 7 mph 90% 0.110 in 0.00 W/m2
00:09 37.0 °F 34.0 °F 30.1 in WNW 4 mph 13 mph 90% 0.110 in 0.00 W/m2
00:14 37.0 °F 34.0 °F 30.1 in WNW 9 mph 6 mph 90% 0.120 in 0.00 W/m2
00:19 37.0 °F 34.0 °F 30.1 in WNW 11 mph 9 mph 90% 0.120 in 0.00 W/m2
00:24 37.0 °F 34.0 °F 30.1 in NNW 9 mph 10 mph 90% 0.120 in 0.00 W/m2
00:29 37.0 °F 34.0 °F 30.1 in NNW 4 mph 9 mph 90% 0.110 in 0.00 W/m2
00:34 37.0 °F 35.0 °F 30.1 in North 9 mph 2 mph 91% 0.110 in 0.00 W/m2
00:39 37.0 °F 35.0 °F 30.1 in NW 9 mph 9 mph 91% 0.110 in 0.00 W/m2
00:43 37.0 °F 35.0 °F 30.1 in WNW 4 mph 9 mph 91% 0.110 in 0.00 W/m2
00:49 37.0 °F 35.0 °F 30.1 in NW 16 mph 9 mph 91% 0.110 in 0.00 W/m2
00:54 37.0 °F 34.0 °F 30.1 in NW 13 mph 16 mph 90% 0.110 in 0.00 W/m2
00:59 37.0 °F 34.0 °F 30.1 in WNW 9 mph 13 mph 90% 0.110 in 0.00 W/m2
01:04 36.0 °F 34.0 °F 30.1 in NE 6 mph 9 mph 90% 0.100 in 0.00 W/m2
01:09 36.0 °F 34.0 °F 30.1 in WNW 2 mph 6 mph 90% 0.100 in 0.00 W/m2
01:14 36.0 °F 34.0 °F 30.1 in WNW 7 mph 4 mph 90% 0.100 in 0.00 W/m2
01:19 36.0 °F 33.0 °F 30.1 in NE 9 mph 7 mph 90% 0.090 in 0.00 W/m2
01:24 36.0 °F 33.0 °F 30.1 in NW 9 mph 9 mph 90% 0.100 in 0.00 W/m2
01:29 36.0 °F 33.0 °F 30.1 in WNW 2 mph 9 mph 90% 0.100 in 0.00 W/m2
01:34 35.0 °F 33.0 °F 30.1 in West 6 mph 2 mph 90% 0.100 in 0.00 W/m2
01:39 35.0 °F 33.0 °F 30.1 in NW 6 mph 6 mph 90% 0.100 in 0.00 W/m2
01:44 35.0 °F 33.0 °F 30.0 in North 4 mph 6 mph 90% 0.100 in 0.00 W/m2
01:49 35.0 °F 32.0 °F 30.1 in NW 2 mph 3 mph 90% 0.090 in 0.00 W/m2
01:54 35.0 °F 32.0 °F 30.1 in Calm   2 mph 90% 0.070 in 0.00 W/m2
01:59 35.0 °F 32.0 °F 30.1 in Calm     90% 0.070 in 0.00 W/m2
02:04 35.0 °F 32.0 °F 30.1 in NW 2 mph   90% 0.060 in 0.00 W/m2
02:09 35.0 °F 32.0 °F 30.1 in Calm   2 mph 90% 0.060 in 0.00 W/m2
02:14 35.0 °F 32.0 °F 30.1 in NNW 6 mph 2 mph 90% 0.060 in 0.00 W/m2
02:19 35.0 °F 32.0 °F 30.1 in Calm   6 mph 91% 0.070 in 0.00 W/m2
02:24 35.0 °F 32.0 °F 30.1 in NW 9 mph 3 mph 91% 0.060 in 0.00 W/m2
02:29 35.0 °F 32.0 °F 30.0 in NW 9 mph 9 mph 91% 0.050 in 0.00 W/m2
02:34 35.0 °F 32.0 °F 30.0 in NNW 11 mph 7 mph 91% 0.050 in 0.00 W/m2
02:38 35.0 °F 32.0 °F 30.0 in WNW 2 mph 10 mph 91% 0.050 in 0.00 W/m2
02:44 35.0 °F 32.0 °F 30.0 in NW 2 mph 2 mph 91% 0.050 in 0.00 W/m2
02:49 35.0 °F 32.0 °F 30.0 in NW 6 mph 2 mph 91% 0.040 in 0.00 W/m2
02:54 35.0 °F 32.0 °F 30.0 in WNW 6 mph 6 mph 91% 0.040 in 0.00 W/m2
02:59 35.0 °F 32.0 °F 30.0 in WNW 5 mph 6 mph 91% 0.030 in 0.00 W/m2
03:04 35.0 °F 33.0 °F 30.0 in NNW 11 mph 6 mph 91% 0.030 in 0.00 W/m2
03:09 35.0 °F 33.0 °F 30.0 in NW 4 mph 10 mph 91% 0.030 in 0.00 W/m2
03:14 35.0 °F 33.0 °F 30.0 in NNW 4 mph 3 mph 92% 0.040 in 0.00 W/m2
03:19 35.0 °F 33.0 °F 30.0 in SSW 2 mph 2 mph 92% 0.040 in 0.00 W/m2
03:24 35.0 °F 33.0 °F 30.0 in Calm   2 mph 92% 0.030 in 0.00 W/m2
03:29 35.0 °F 33.0 °F 30.0 in NW 2 mph   92% 0.030 in 0.00 W/m2
03:34 35.0 °F 33.0 °F 30.0 in NE 7 mph 2 mph 92% 0.040 in 0.00 W/m2
03:39 36.0 °F 33.0 °F 30.0 in Calm   7 mph 92% 0.040 in 0.00 W/m2
03:44 36.0 °F 34.0 °F 30.0 in ENE 4 mph 1 mph 92% 0.030 in 0.00 W/m2
03:49 36.0 °F 34.0 °F 30.0 in NW 5 mph 3 mph 92% 0.040 in 0.00 W/m2
03:54 36.0 °F 34.0 °F 30.0 in NNW 6 mph 6 mph 92% 0.040 in 0.00 W/m2
03:59 36.0 °F 34.0 °F 30.0 in Calm     92% 0.040 in 0.00 W/m2
04:04 36.0 °F 34.0 °F 30.0 in Calm     92% 0.040 in 0.00 W/m2
04:09 36.0 °F 34.0 °F 30.0 in Calm     92% 0.040 in 0.00 W/m2
04:14 36.0 °F 34.0 °F 30.0 in Calm     92% 0.030 in 0.00 W/m2
04:19 36.0 °F 34.0 °F 30.0 in WNW 2 mph   92% 0.050 in 0.00 W/m2
04:24 36.0 °F 34.0 °F 30.0 in NNW 9 mph 2 mph 92% 0.060 in 0.00 W/m2
04:29 36.0 °F 34.0 °F 30.0 in WNW 4 mph 9 mph 92% 0.070 in 0.00 W/m2
04:34 36.0 °F 34.0 °F 30.0 in NW 7 mph 3 mph 92% 0.070 in 0.00 W/m2
04:39 36.0 °F 34.0 °F 30.0 in WNW 2 mph 7 mph 92% 0.060 in 0.00 W/m2
04:44 36.0 °F 34.0 °F 30.0 in NNW 2 mph 2 mph 92% 0.060 in 0.00 W/m2
04:49 36.0 °F 34.0 °F 30.0 in NNW 6 mph 2 mph 92% 0.060 in 0.00 W/m2
04:54 36.0 °F 34.0 °F 30.0 in NW 4 mph 6 mph 92% 0.050 in 0.00 W/m2
04:59 36.0 °F 34.0 °F 30.0 in WNW 7 mph 3 mph 92% 0.050 in 0.00 W/m2
05:04 36.0 °F 34.0 °F 30.0 in WNW 7 mph 7 mph 92% 0.050 in 0.00 W/m2
05:09 36.0 °F 34.0 °F 30.0 in WNW 9 mph 2 mph 92% 0.050 in 0.00 W/m2
05:14 36.0 °F 34.0 °F 30.0 in WNW 2 mph 9 mph 92% 0.060 in 0.00 W/m2
05:19 36.0 °F 34.0 °F 30.0 in NNW 6 mph 2 mph 92% 0.050 in 0.00 W/m2
05:24 36.0 °F 34.0 °F 30.0 in NNW 2 mph 6 mph 92% 0.030 in 0.00 W/m2
05:29 36.0 °F 34.0 °F 30.0 in NW 4 mph 1 mph 92% 0.020 in 0.00 W/m2
05:34 36.0 °F 34.0 °F 30.0 in NW 7 mph 3 mph 92% 0.010 in 0.00 W/m2
05:39 36.0 °F 34.0 °F 30.0 in NW 2 mph 7 mph 92% 0.010 in 0.00 W/m2
05:44 36.0 °F 34.0 °F 30.0 in NNW 9 mph 2 mph 92% 0.010 in 0.00 W/m2
05:49 36.0 °F 34.0 °F 30.0 in NNW 4 mph 9 mph 92% 0.010 in 0.00 W/m2
05:54 36.0 °F 34.0 °F 30.0 in NW 6 mph 3 mph 92% 0.010 in 0.00 W/m2
05:59 36.0 °F 34.0 °F 30.0 in NW 2 mph 6 mph 92% 0.010 in 0.00 W/m2
06:04 36.0 °F 34.0 °F 30.0 in Calm   2 mph 92% 0.010 in 0.00 W/m2
06:09 36.0 °F 34.0 °F 30.0 in WNW 2 mph 2 mph 92% 0.010 in 0.00 W/m2
06:14 36.0 °F 34.0 °F 30.0 in NNW 6 mph 2 mph 92% 0.010 in 0.00 W/m2
06:19 36.0 °F 34.0 °F 30.0 in WNW 6 mph 6 mph 92% 0.000 in 0.00 W/m2
06:23 36.0 °F 34.0 °F 30.0 in Calm   6 mph 92% 0.000 in 0.00 W/m2
06:29 36.0 °F 34.0 °F 30.0 in WNW 2 mph 2 mph 92% 0.000 in 5.00 W/m2
06:34 36.0 °F 34.0 °F 30.0 in NNW 7 mph 2 mph 92% 0.000 in 9.00 W/m2
06:39 36.0 °F 34.0 °F 30.0 in WNW 7 mph 7 mph 92% 0.000 in 12.00 W/m2
06:44 36.0 °F 34.0 °F 30.0 in West 6 mph 7 mph 92% 0.000 in 21.00 W/m2
06:49 36.0 °F 34.0 °F 30.0 in NW 6 mph 6 mph 92% 0.000 in 23.00 W/m2
06:54 36.0 °F 34.0 °F 30.0 in NE 4 mph 6 mph 92% 0.000 in 26.00 W/m2
06:59 36.0 °F 34.0 °F 30.0 in NNE 2 mph 3 mph 92% 0.000 in 26.00 W/m2
07:04 36.0 °F 34.0 °F 30.0 in NW 9 mph 9 mph 92% 0.000 in 30.00 W/m2
07:09 36.0 °F 34.0 °F 30.0 in NNW 7 mph 7 mph 92% 0.000 in 28.00 W/m2
07:14 37.0 °F 34.0 °F 30.0 in NW 2 mph 6 mph 92% 0.000 in 25.00 W/m2
07:19 37.0 °F 34.0 °F 30.0 in NW 6 mph 2 mph 92% 0.000 in 33.00 W/m2
07:24 37.0 °F 35.0 °F 30.0 in ENE 6 mph 6 mph 92% 0.000 in 44.00 W/m2
07:29 37.0 °F 35.0 °F 30.0 in NNW 7 mph 6 mph 92% 0.000 in 46.00 W/m2
El Dorado Weather
Compliments of Weather Underground - 2 mb